• In Hungary
  • List of Countries
  • For 7 days
  • Water Temperature
  • Satellite Maps
  • Weather Map
  • News
  • Weather Widgets
  • user-avatar
    Login

    Hourly Weather Hadera

    Today, 23 January, Tuesday

    Time Temperature Precipitation Wind Pressure Humidity
    00:00 +8°C° 0.5 mm 11 mps 709 mmHg 83%
    01:00 +8°C° 0.5 mm 11 mps 709 mmHg 83%
    02:00 +7°C° 0 mm 12 mps 708 mmHg 83%
    03:00 +7°C° 1 mm 12 mps 708 mmHg 85%
    04:00 +8°C° 1 mm 12 mps 709 mmHg 86%
    05:00 +8°C° 1 mm 11 mps 709 mmHg 87%
    06:00 +8°C° 0.7 mm 11 mps 709 mmHg 87%
    07:00 +8°C° 0.7 mm 10 mps 710 mmHg 87%
    08:00 +8°C° 0.7 mm 9 mps 710 mmHg 87%
    09:00 +10°C° 0.2 mm 8 mps 711 mmHg 85%
    10:00 +10°C° 0.2 mm 7 mps 711 mmHg 83%
    11:00 +11°C° 0.2 mm 7 mps 712 mmHg 81%
    12:00 +11°C° 0.1 mm 6 mps 712 mmHg 79%
    13:00 +12°C° 0.1 mm 5 mps 713 mmHg 77%
    14:00 +12°C° 0.1 mm 5 mps 713 mmHg 75%
    15:00 +12°C° 0 mm 4 mps 713 mmHg 78%
    16:00 +11°C° 0 mm 4 mps 714 mmHg 81%
    17:00 +11°C° 0 mm 3 mps 714 mmHg 85%
    18:00 +10°C° 0 mm 3 mps 714 mmHg 86%
    19:00 +10°C° 0 mm 3 mps 714 mmHg 88%
    20:00 +9°C° 0 mm 3 mps 715 mmHg 90%
    21:00 +10°C° 0.1 mm 3 mps 715 mmHg 90%
    22:00 +10°C° 0.1 mm 3 mps 715 mmHg 91%
    23:00 +10°C° 0.1 mm 3 mps 715 mmHg 91%

    Tomorrow, 24 January, Wednesday

    Time Temperature Precipitation Wind Pressure Humidity
    00:00 +10°C° 0.4 mm 3 mps 715 mmHg 91%
    01:00 +10°C° 0.4 mm 3 mps 715 mmHg 91%
    02:00 +10°C° 0.4 mm 3 mps 716 mmHg 91%
    03:00 +10°C° 0.5 mm 4 mps 715 mmHg 91%
    04:00 +10°C° 0.5 mm 4 mps 715 mmHg 91%
    05:00 +10°C° 0.5 mm 4 mps 715 mmHg 91%
    06:00 +8°C° 0.4 mm 4 mps 715 mmHg 90%
    07:00 +9°C° 0.4 mm 3 mps 716 mmHg 90%
    08:00 +9°C° 0.4 mm 3 mps 716 mmHg 89%
    09:00 +10°C° 0.2 mm 3 mps 716 mmHg 87%
    10:00 +10°C° 0.2 mm 3 mps 716 mmHg 84%
    11:00 +10°C° 0.2 mm 3 mps 717 mmHg 82%
    12:00 +10°C° 0.1 mm 3 mps 716 mmHg 82%
    13:00 +10°C° 0.1 mm 3 mps 716 mmHg 82%
    14:00 +10°C° 0.1 mm 3 mps 716 mmHg 82%
    15:00 +10°C° 0.2 mm 3 mps 716 mmHg 83%
    16:00 +9°C° 0.2 mm 3 mps 716 mmHg 85%
    17:00 +8°C° 0.2 mm 4 mps 716 mmHg 86%
    18:00 +8°C° 0.2 mm 4 mps 716 mmHg 86%
    19:00 +8°C° 0.2 mm 4 mps 716 mmHg 86%
    20:00 +7°C° 0.2 mm 5 mps 716 mmHg 86%
    21:00 +7°C° 0.2 mm 5 mps 716 mmHg 86%
    22:00 +7°C° 0.2 mm 5 mps 716 mmHg 85%
    23:00 +7°C° 0.2 mm 5 mps 716 mmHg 84%

    Day after tomorrow, 25 January, Thursday

    Time Temperature Precipitation Wind Pressure Humidity
    00:00 +7°C° 0.6 mm 5 mps 716 mmHg 84%
    01:00 +7°C° 0.6 mm 4 mps 715 mmHg 84%
    02:00 +7°C° 0.6 mm 4 mps 715 mmHg 83%
    03:00 +6°C° 0.7 mm 4 mps 715 mmHg 84%
    04:00 +6°C° 0.7 mm 4 mps 714 mmHg 85%
    05:00 +6°C° 0.7 mm 4 mps 714 mmHg 86%
    06:00 +6°C° 0.6 mm 4 mps 714 mmHg 85%
    07:00 +6°C° 0.6 mm 4 mps 714 mmHg 85%
    08:00 +6°C° 0.6 mm 4 mps 714 mmHg 85%
    09:00 +6°C° 0.8 mm 4 mps 714 mmHg 84%
    10:00 +6°C° 0.8 mm 4 mps 714 mmHg 83%
    11:00 +6°C° 0.8 mm 4 mps 714 mmHg 82%
    12:00 +6°C° 0.7 mm 4 mps 714 mmHg 82%
    13:00 +6°C° 0.7 mm 4 mps 713 mmHg 82%
    14:00 +7°C° 0.7 mm 3 mps 713 mmHg 82%
    15:00 +5°C° 0.3 mm 3 mps 713 mmHg 82%
    16:00 +5°C° 0.3 mm 3 mps 712 mmHg 83%
    17:00 +5°C° 0.3 mm 3 mps 712 mmHg 83%
    18:00 +5°C° 0.4 mm 4 mps 712 mmHg 84%
    19:00 +5°C° 0.4 mm 4 mps 713 mmHg 85%
    20:00 +5°C° 0.4 mm 4 mps 713 mmHg 86%
    21:00 +5°C° 0.6 mm 4 mps 713 mmHg 86%
    22:00 +5°C° 0.6 mm 5 mps 713 mmHg 86%
    23:00 +5°C° 0.6 mm 5 mps 712 mmHg 86%

    26 January, Friday

    Time Temperature Precipitation Wind Pressure Humidity
    00:00 +5°C° 1.2 mm 5 mps 712 mmHg 88%
    01:00 +5°C° 1.2 mm 5 mps 712 mmHg 89%
    02:00 +5°C° 1.2 mm 5 mps 712 mmHg 91%
    03:00 +5°C° 1.5 mm 4 mps 712 mmHg 92%
    04:00 +5°C° 1.5 mm 4 mps 712 mmHg 92%
    05:00 +5°C° 1.5 mm 4 mps 711 mmHg 93%
    06:00 +5°C° 2.3 mm 4 mps 712 mmHg 93%
    07:00 +5°C° 2.3 mm 4 mps 712 mmHg 93%
    08:00 +5°C° 2.3 mm 4 mps 713 mmHg 93%
    09:00 +5°C° 1.7 mm 4 mps 713 mmHg 92%
    10:00 +5°C° 1.7 mm 5 mps 714 mmHg 91%
    11:00 +5°C° 1.7 mm 5 mps 714 mmHg 90%
    12:00 +5°C° 0.1 mm 5 mps 714 mmHg 88%
    13:00 +6°C° 0.1 mm 5 mps 714 mmHg 86%
    14:00 +6°C° 0.1 mm 5 mps 714 mmHg 84%
    15:00 +6°C° 0 mm 4 mps 715 mmHg 82%
    16:00 +5°C° 0 mm 3 mps 715 mmHg 81%
    17:00 +5°C° 0 mm 3 mps 716 mmHg 79%
    18:00 +6°C° 0 mm 2 mps 716 mmHg 78%
    19:00 +5°C° 0 mm 2 mps 717 mmHg 77%
    20:00 +6°C° 0 mm 1 mps 717 mmHg 76%
    21:00 +5°C° 0 mm 2 mps 717 mmHg 76%
    22:00 +4°C° 0 mm 2 mps 718 mmHg 77%
    23:00 +4°C° 0 mm 2 mps 718 mmHg 78%

    27 January, Saturday

    Time Temperature Precipitation Wind Pressure Humidity
    00:00 +3°C° 0 mm 3 mps 718 mmHg 77%
    01:00 +3°C° 0 mm 3 mps 718 mmHg 76%
    02:00 +3°C° 0 mm 3 mps 718 mmHg 76%
    03:00 +4°C° 0 mm 4 mps 718 mmHg 75%
    04:00 +4°C° 0 mm 4 mps 718 mmHg 75%
    05:00 +4°C° 0 mm 4 mps 719 mmHg 75%
    06:00 +5°C° 0 mm 4 mps 719 mmHg 75%
    07:00 +5°C° 0 mm 4 mps 719 mmHg 75%
    08:00 +6°C° 0 mm 4 mps 720 mmHg 75%
    09:00 +7°C° 0 mm 4 mps 720 mmHg 71%
    10:00 +8°C° 0 mm 4 mps 721 mmHg 67%
    11:00 +11°C° 0 mm 4 mps 721 mmHg 64%
    12:00 +11°C° 0 mm 4 mps 721 mmHg 63%
    13:00 +10°C° 0 mm 5 mps 721 mmHg 63%
    14:00 +10°C° 0 mm 5 mps 721 mmHg 62%
    15:00 +10°C° 0 mm 4 mps 721 mmHg 66%
    16:00 +8°C° 0 mm 4 mps 721 mmHg 69%
    17:00 +7°C° 0 mm 4 mps 721 mmHg 73%
    18:00 +7°C° 0 mm 4 mps 721 mmHg 75%
    19:00 +7°C° 0 mm 3 mps 722 mmHg 78%
    20:00 +5°C° 0 mm 3 mps 722 mmHg 81%
    21:00 +5°C° 0 mm 3 mps 722 mmHg 81%
    22:00 +5°C° 0 mm 3 mps 722 mmHg 82%
    23:00 +5°C° 0 mm 3 mps 722 mmHg 82%

    28 January, Sunday

    Time Temperature Precipitation Wind Pressure Humidity
    00:00 +5°C° 0 mm 3 mps 722 mmHg 83%
    01:00 +5°C° 0 mm 3 mps 722 mmHg 83%
    02:00 +5°C° 0 mm 3 mps 722 mmHg 84%
    03:00 +5°C° 0 mm 3 mps 722 mmHg 84%
    04:00 +4°C° 0 mm 3 mps 722 mmHg 85%
    05:00 +5°C° 0 mm 2 mps 722 mmHg 85%
    06:00 +6°C° 0 mm 2 mps 723 mmHg 85%
    07:00 +8°C° 0 mm 1 mps 723 mmHg 84%
    08:00 +9°C° 0 mm 1 mps 724 mmHg 84%
    09:00 +10°C° 0 mm 1 mps 724 mmHg 78%
    10:00 +11°C° 0 mm 1 mps 724 mmHg 72%
    11:00 +12°C° 0 mm 1 mps 725 mmHg 66%
    12:00 +13°C° 0 mm 1 mps 724 mmHg 66%
    13:00 +13°C° 0 mm 1 mps 724 mmHg 66%
    14:00 +13°C° 0 mm 2 mps 724 mmHg 66%
    15:00 +12°C° 0 mm 1 mps 724 mmHg 70%
    16:00 +11°C° 0 mm 1 mps 724 mmHg 74%
    17:00 +11°C° 0 mm 1 mps 724 mmHg 78%
    18:00 +10°C° 0 mm 1 mps 724 mmHg 81%
    19:00 +9°C° 0 mm 1 mps 724 mmHg 84%
    20:00 +7°C° 0 mm 0 mps 724 mmHg 87%
    21:00 +7°C° 0 mm 0 mps 724 mmHg 87%
    22:00 +8°C° 0 mm 1 mps 724 mmHg 88%
    23:00 +8°C° 0 mm 1 mps 724 mmHg 88%
    Show more